Location: Gleizolles
(44.4833°N, 6.7667°E)
Time: 21:22:55
(UTC+00:00)

A-11 Canister half - Pass Details

Date: 27 June 2024
Orbit: 1524 x 1684 km, 47.3° (Epoch: 18 July)

Event Time Altitude Azimuth Distance (km) Brightness Sun altitude
Rises 13:53:54 0° 274° (W) 4,729 12.0 54.8°
Reaches altitude 10° 13:57:00 10° 276° (W) 3,729 11.7 54.3°
Maximum altitude 14:06:24 75° 2° (N) 1,574 9.9 52.8°
Drops below altitude 10° 14:15:43 10° 88° (E) 3,692 10.8 51.2°
Sets 14:18:46 0° 90° (E) 4,680 11.2 50.7°
